Location: Champs
(48.8539°N, 2.6040°E)
Time: 12:35:44
(UTC+00:00)

Cosmos 1626 - Pass Details

Date: 26 October 2021
Orbit: 487 x 492 km, 82.5° (Epoch: 06 December)

Event Time Altitude Azimuth Distance (km) Brightness Sun altitude
Exits shadow 04:34:19 57° 258° (WSW) 588 2.1 -19.1°
Maximum altitude 04:34:36 59° 282° (WNW) 574 2.0 -19.1°
Drops below altitude 10° 04:38:17 10° 3° (N) 1,701 4.9 -18.5°
Sets 04:40:26 0° 7° (N) 2,588 5.9 -18.1°
